Change the Weather History Date:

Friday, November 25, 2011

  Actual Average Record
Temperature  
Mean Temperature 42 °F -  
Max Temperature 44 °F 43 °F 51 °F (2004)
Min Temperature 39 °F 37 °F 26 °F (2013)
Degree Days  
Heating Degree Days 24    
Moisture  
Dew Point 39 °F    
Average Humidity 87    
Maximum Humidity 93    
Minimum Humidity 81    
Precipitation  
Precipitation 0.00 in - - ()
Sea Level Pressure  
Sea Level Pressure 29.87 in    
Wind  
Wind Speed 19 mph ()    
Max Wind Speed 29 mph    
Max Gust Speed 39 mph    
Visibility 6.2 miles    
Events Rain    
Averages and records for this station are not official NWS values.
T = Trace of Precipitation, MM = Missing Value Source: Averaged Metar Reports

Daily Weather History Graph

Daily Weather History Graph

Search for Another Location

Airport or City:

Trip Planner

Search our weather history database for the weather conditions in past years. The results will help you decide how hot, cold, wet, or windy it might be!

Date:

Astronomy

Nov. 25, 2011 Rise Set
Actual Time 8:10 AM GMT 3:47 PM GMT
Civil Twilight 7:25 AM GMT 4:32 PM GMT
Nautical Twilight 6:37 AM GMT 5:19 PM GMT
Astronomical Twilight 5:52 AM GMT 6:04 PM GMT
Moon 8:33 AM GMT (11/25) 3:47 PM GMT (11/25)
Length of Visible Light 9h 07m
Length of Day
7h 37m
New Moon, 0% of the Moon is Illuminated
Nov 25
New Moon
Dec 2
First Quarter
Dec 10
Full
Dec 18
Last Quarter
Dec 24
New

Hourly Weather History & Observations

Time (GMT) Temp. Windchill Dew Point Humidity Pressure Visibility Wind Dir Wind Speed Gust Speed Precip Events Conditions
7:50 AM 44.6 °F 36.4 °F 41.0 °F 87% 29.80 in 6.2 mi SW 20.7 mph - N/A   Scattered Clouds
8:20 AM 42.8 °F 34.3 °F 39.2 °F 87% 29.80 in 6.2 mi WSW 19.6 mph - N/A   Mostly Cloudy
8:50 AM 42.8 °F 33.1 °F 39.2 °F 87% 29.77 in 6.2 mi WSW 25.3 mph 39.1 mph N/A Rain Rain Showers
9:20 AM 42.8 °F 34.8 °F 41.0 °F 93% 29.77 in 6.2 mi SW 17.3 mph - N/A Rain Light Rain Showers
9:50 AM 42.8 °F 33.1 °F 41.0 °F 93% 29.77 in 6.2 mi SW 25.3 mph - N/A Rain Rain Showers
10:20 AM 42.8 °F 34.5 °F 41.0 °F 93% 29.74 in 6.2 mi WSW 18.4 mph - N/A   Scattered Clouds
10:50 AM 42.8 °F 33.5 °F 41.0 °F 93% 29.74 in 6.2 mi WSW 23.0 mph - N/A   Scattered Clouds
11:20 AM 42.8 °F 32.7 °F 41.0 °F 93% 29.74 in 6.2 mi WSW 27.6 mph - N/A   Scattered Clouds
11:50 AM 42.8 °F 32.9 °F 41.0 °F 93% 29.77 in 6.2 mi WSW 26.5 mph - N/A   Scattered Clouds
12:20 PM 44.6 °F 35.9 °F 41.0 °F 87% 29.80 in 6.2 mi West 23.0 mph - N/A   Scattered Clouds
12:50 PM 44.6 °F 34.9 °F 41.0 °F 87% 29.80 in 6.2 mi WSW 28.8 mph - N/A   Scattered Clouds
1:20 PM 42.8 °F 34.0 °F 39.2 °F 87% 29.80 in 6.2 mi West 20.7 mph - N/A   Partly Cloudy
1:50 PM 44.6 °F 36.1 °F 39.2 °F 81% 29.83 in 6.2 mi West 21.9 mph - N/A   Partly Cloudy
2:20 PM 44.6 °F 35.9 °F 39.2 °F 81% 29.83 in 6.2 mi West 23.0 mph - N/A   Partly Cloudy
2:50 PM 41.0 °F 30.7 °F 35.6 °F 81% 29.86 in 6.2 mi West 25.3 mph - N/A   Partly Cloudy
3:20 PM 41.0 °F 33.1 °F 39.2 °F 93% 29.89 in 6.2 mi West 15.0 mph - N/A   Partly Cloudy
3:50 PM 42.8 °F 34.3 °F 39.2 °F 87% 29.89 in 6.2 mi West 19.6 mph - N/A   Partly Cloudy
4:20 PM 42.8 °F 34.5 °F 39.2 °F 87% 29.89 in 6.2 mi West 18.4 mph - N/A   Partly Cloudy
4:50 PM 44.6 °F 35.7 °F 39.2 °F 81% 29.92 in 6.2 mi West 24.2 mph - N/A   Partly Cloudy
5:20 PM 42.8 °F 34.8 °F 37.4 °F 81% 29.95 in - West 17.3 mph - N/A   Clear
5:50 PM 41.0 °F 31.4 °F 35.6 °F 81% 29.95 in - West 21.9 mph - N/A   Clear
6:20 PM 39.2 °F 31.2 °F 35.6 °F 87% 29.95 in - West 13.8 mph - N/A   Clear
6:50 PM 39.2 °F 32.5 °F 35.6 °F 87% 29.98 in - West 10.4 mph - N/A   Clear
7:20 PM 41.0 °F 32.8 °F 37.4 °F 87% 29.98 in - West 16.1 mph - N/A   Clear
7:50 PM 41.0 °F 33.1 °F 37.4 °F 87% 29.98 in - West 15.0 mph - N/A   Clear
8:20 PM 41.0 °F 31.9 °F 37.4 °F 87% 29.98 in - West 19.6 mph - N/A   Clear
8:50 PM 41.0 °F 32.8 °F 37.4 °F 87% 29.98 in - West 16.1 mph - N/A   Clear
9:20 PM 41.0 °F 33.1 °F 37.4 °F 87% 29.98 in - West 15.0 mph - N/A   Clear
9:50 PM 41.0 °F 33.9 °F 39.2 °F 93% 29.98 in - West 12.7 mph - N/A   Clear